Location: Leiter
(44.7178°N, 106.2687°W)
Time: 02:08:41
(UTC+00:00)

X-37B - Pass Details

Date: 31 January 2022
Orbit: 329 x 342 km, 45.0° (Epoch: 18 May)

Event Time Altitude Azimuth Distance (km) Brightness Sun altitude
Rises 00:36:34 0° 237° (WSW) 2,115 6.4 -5.0°
Reaches altitude 10° 00:38:37 10° 230° (SW) 1,277 4.6 -5.4°
Maximum altitude 00:41:20 40° 158° (SSE) 512 1.2 -5.8°
Drops below altitude 10° 00:44:03 10° 87° (E) 1,276 2.6 -6.3°
Enters shadow 00:44:25 - 85° (E) 1,419 2.8 -6.3°
